Regional Weather Roundup
Issued by NWS

Home | Current Version | Previous Version | Text Only | Print | Product List | Glossary Off
Versions: 1 2 3 4 5 6 7 8 9 10 11 12 13 14 15 16 17 18 19 20 21 22 23 24 25 26 27 28 29 30 31 32 33 34 35 36 37 38 39 40 41 42 43 44 45 46 47 48 49 50

000
ASUS43 KBIS 211620
RWRND

NORTH DAKOTA REGIONAL WEATHER ROUNDUP
NATIONAL WEATHER SERVICE BISMARCK ND
1100 AM CDT TUE OCT 21 2014

NOTE: "FAIR" INDICATES FEW OR NO CLOUDS BELOW 12,000 FEET WITH NO
SIGNIFICANT WEATHER AND/OR OBSTRUCTIONS TO VISIBILITY.


NDZ001>003-009>011-017-211700-
NORTHWEST NORTH DAKOTA

CITY           SKY/WX    TMP DP  RH WIND       PRES   REMARKS
WILLISTON      SUNNY     55  39  54 SE7       29.71F
MINOT          SUNNY     58  37  45 SE10      29.77F
MINOT AFB      SUNNY     54  42  62 S10       29.76F
$$

NDZ018>021-031>035-040>046-211700-
SOUTHWEST NORTH DAKOTA

CITY           SKY/WX    TMP DP  RH WIND       PRES   REMARKS
BISMARCK       SUNNY     59  40  49 SE15      29.81F
DICKINSON      SUNNY     54  41  61 SE9       29.72F
GARRISON         N/A     56  38  50 S14       29.77F
HETTINGER ARPT SUNNY     56  41  57 SE8       29.76F
$$

NDZ004>008-012>016-024-026-027-054-211700-
NORTHEAST NORTH DAKOTA

CITY           SKY/WX    TMP DP  RH WIND       PRES   REMARKS
GRAND FORKS    SUNNY     50  41  71 S17G28    29.99F
GRND FRKS AFB  SUNNY     49  43  79 S16G23    29.98F
DEVILS LAKE    SUNNY     55  37  50 SE22      29.86F
$$

NDZ022-023-025-028>030-036>039-047>053-211700-
SOUTHEAST NORTH DAKOTA

CITY           SKY/WX    TMP DP  RH WIND       PRES   REMARKS
FARGO          SUNNY     55  41  59 SE18G32   29.99F
JAMESTOWN      SUNNY     58  39  49 SE20G32   29.88F
$$




USA.gov is the U.S. government's official web portal to all federal, state and local government web resources and services.